Regional Weather Roundup
Issued by NWS

Home | Current Version | Previous Version | Graphics & Text | Print | Product List | Glossary On
Versions: 1 2 3 4 5 6 7 8 9 10 11 12 13 14 15 16 17 18 19 20 21 22 23 24 25 26 27 28 29 30 31 32 33 34 35 36 37 38 39 40 41 42 43 44 45 46 47 48 49 50
000
ASUS43 KIND 031409
RWRIN

WEATHER ROUNDUP FOR INDIANA
NATIONAL WEATHER SERVICE INDIANAPOLIS IN
1000 AM EDT FRI JUL 03 2015

NOTE: "FAIR" INDICATES FEW OR NO CLOUDS BELOW 12,000 FEET WITH NO
SIGNIFICANT WEATHER AND/OR OBSTRUCTIONS TO VISIBILITY.

* - STATION DOES NOT REPORT WEATHER SUCH AS PRECIPITATION OR FOG.

+ - STATION NOT QUALITY CONTROLLED BY THE NATIONAL WEATHER SERVICE.
    USE DATA WITH CAUTION...ESPECIALLY DEWPOINT AND RELATIVE
    HUMIDITY OBSERVATIONS.

INZ001>003-010>013-019-020-031500-
NORTHWEST INDIANA

CITY           SKY/WX    TMP DP  RH WIND       PRES   REMARKS
GARY /AIRPORT/ PTSUNNY   66  57  72 E5        29.98F
KNOX *+        PTSUNNY   64  54  68 E6        29.97F
LA PORTE +     MOSUNNY   67  58  74 E7        29.99S
MICHIGAN CITY+ PTSUNNY   66  54  63 E6        29.99S
MONTICELLO +   CLOUDY    63  56  77 NE6       29.95S
RENSSELAER +   CLOUDY    66  59  77 E6        29.97S
VALPARAISO     PTSUNNY   67  54  63 E7        29.98F

$$

LMZ046-743>745-031500-
SOUTHERN LAKE MICHIGAN

STATION/POSITION TIME  TEMP    WIND        PRES    WAVE
                       AIR SEA DIR/SP/G            HT
                 (UTC) (F)     (DEG/KT/KT) (MB)    (FT)
BURNS HARBOR     1400   67     110/  9/ 11 1015.6F
MICHIGAN CITY    1400   65     100/  8/ 11   N/A
5NW MICH CITY    1400   63 63   80/  4/  6   N/A     1

$$

INZ004-005-014>016-021>024-031500-
NORTH CENTRAL INDIANA

CITY           SKY/WX    TMP DP  RH WIND       PRES   REMARKS
ELKHART        SUNNY     66  57  72 SE7       30.00S
GOSHEN         MOSUNNY   66  56  70 E10       29.98F
LOGANSPORT +   CLOUDY    63  52  67 NE3       29.96S
PERU/GRISSOM   DRIZZLE   64  57  79 NE7       29.94F
ROCHESTER +    PTSUNNY   68  59  73 E8        29.97F
SOUTH BEND     MOSUNNY   67  57  70 E6        29.99F
WARSAW +         N/A     64  54  68 E9        29.97F

$$

INZ006>009-017-018-025>027-031500-
NORTHEAST INDIANA

CITY           SKY/WX    TMP DP  RH WIND       PRES   REMARKS
ANGOLA *+        N/A     64  54  68 E7        29.99F
AUBURN +       MOSUNNY   66  55  68 E8        29.99F
FORT WAYNE     PTSUNNY   65  57  75 E12       29.98F
HUNTINGTON +   PTSUNNY   64  57  78 E7        29.96F

$$

INZ028-029-035-036-043>045-051>053-031500-
WEST CENTRAL INDIANA

CITY           SKY/WX    TMP DP  RH WIND       PRES   REMARKS
CRAWFORDSVL +  PTSUNNY   65  56  72 NE6       29.93S
GREENCASTLE +  PTSUNNY   66  59  77 NE5       29.91S
LAFAYETTE      CLOUDY    65  56  72 NE10      29.94S
TERRE HAUTE    PTSUNNY   70  63  78 NE7       29.90S

$$

INZ030>032-037>040-046>048-054>057-064-065-031500-
CENTRAL INDIANA

CITY           SKY/WX    TMP DP  RH WIND       PRES   REMARKS
ANDERSON       MOSUNNY   64  54  68 NE6       29.95S
CP ATTERBURY + CLOUDY    68  61  77 NE6       29.91R
COLUMBUS       CLOUDY    68  63  83 E7        29.90
FRANKFORT +    CLOUDY    65  59  79 N8        29.96R
GREENWOOD *+   CLOUDY    68  59  73 E6        29.92S
INDIANAPOLIS   CLOUDY    67  59  75 N8        29.90S
-EAGLE CREEK   PTSUNNY   65  59  81 N5        29.92R
KOKOMO *+      CLOUDY    63  55  77 E9        29.94F
MARION +       CLOUDY    63  55  75 E9        29.95F
MT COMFORT *+  PTSUNNY   66  66 100 E8        29.92S
SHELBYVILLE    CLOUDY    67  61  81 NE6       29.90S
ZIONSVILLE +   CLOUDY    65  56  71 NE7       29.94S

$$

INZ033-034-041-042-049-050-058-059-031500-
EAST CENTRAL INDIANA

CITY           SKY/WX    TMP DP  RH WIND       PRES   REMARKS
MUNCIE         CLOUDY    64  57  78 NE7       29.95S

$$

INZ060-061-067>069-081>083-085>088-031500-
SOUTHWEST INDIANA

CITY           SKY/WX    TMP DP  RH WIND       PRES   REMARKS
EVANSVILLE     CLOUDY    72  69  90 N5        29.86F FOG
HUNTINGBURG *+ CLOUDY    72  68  88 CALM      29.86S
WASHINGTON +   CLOUDY    72  67  85 E3        29.87R HAZE

$$

INZ062-063-066-070>080-084-089>092-031500-
SOUTH CENTRAL AND SOUTHEAST INDIANA

CITY           SKY/WX    TMP DP  RH WIND       PRES   REMARKS
BLOOMINGTON    CLOUDY    68  63  84 NE9       29.89S
MADISON *+     CLOUDY    68  64  88 E5        29.90R
NORTH VERNON + CLOUDY    72  72 100 E7        29.90R
SEYMOUR +      CLOUDY    72  66  83 NE8       29.88S

$$




USA.gov is the U.S. government's official web portal to all federal, state and local government web resources and services.